TimeCST,TemperatureF,Dew PointF,Humidity,Sea Level PressureIn,VisibilityMPH,Wind Direction,Wind SpeedMPH,Gust SpeedMPH,PrecipitationIn,Events,Conditions,WindDirDegrees,DateUTC
12:15 AM,26.6,17.6,69,29.92,10.0,Calm,Calm,-,N/A,,Clear,0,2011-11-30 06:15:00
12:35 AM,26.6,17.6,69,29.91,10.0,Calm,Calm,-,N/A,,Clear,0,2011-11-30 06:35:00
12:55 AM,26.6,17.6,69,29.90,10.0,Calm,Calm,-,N/A,,Clear,0,2011-11-30 06:55:00
1:15 AM,24.8,17.6,74,29.90,10.0,South,3.5,-,N/A,,Clear,190,2011-11-30 07:15:00
2:15 AM,19.4,14.0,80,29.89,10.0,Calm,Calm,-,N/A,,Clear,0,2011-11-30 08:15:00
2:35 AM,21.2,17.6,86,29.89,10.0,Calm,Calm,-,N/A,,Clear,0,2011-11-30 08:35:00
2:55 AM,21.2,15.8,80,29.88,10.0,Calm,Calm,-,N/A,,Clear,0,2011-11-30 08:55:00
3:15 AM,21.2,15.8,80,29.87,10.0,Calm,Calm,-,N/A,,Clear,0,2011-11-30 09:15:00
3:35 AM,19.4,14.0,80,29.87,10.0,Calm,Calm,-,N/A,,Clear,0,2011-11-30 09:35:00
3:55 AM,19.4,15.8,86,29.86,10.0,Calm,Calm,-,N/A,,Clear,0,2011-11-30 09:55:00
4:15 AM,21.2,17.6,86,29.86,10.0,Calm,Calm,-,N/A,,Clear,0,2011-11-30 10:15:00
4:35 AM,23.0,17.6,80,29.86,10.0,Calm,Calm,-,N/A,,Clear,0,2011-11-30 10:35:00
4:55 AM,23.0,19.4,86,29.86,10.0,Calm,Calm,-,N/A,,Scattered Clouds,0,2011-11-30 10:55:00
5:15 AM,23.0,19.4,86,29.86,10.0,Calm,Calm,-,N/A,,Mostly Cloudy,0,2011-11-30 11:15:00
5:35 AM,23.0,19.4,86,29.86,10.0,Calm,Calm,-,N/A,,Mostly Cloudy,0,2011-11-30 11:35:00
5:55 AM,23.0,19.4,86,29.86,10.0,Calm,Calm,-,N/A,,Overcast,0,2011-11-30 11:55:00
6:15 AM,23.0,19.4,86,29.85,10.0,Calm,Calm,-,N/A,,Mostly Cloudy,0,2011-11-30 12:15:00
6:35 AM,23.0,19.4,86,29.85,10.0,Calm,Calm,-,N/A,,Mostly Cloudy,0,2011-11-30 12:35:00
6:55 AM,23.0,19.4,86,29.85,10.0,Calm,Calm,-,N/A,,Overcast,0,2011-11-30 12:55:00
7:15 AM,24.8,21.2,86,29.85,10.0,Calm,Calm,-,N/A,,Overcast,0,2011-11-30 13:15:00
7:35 AM,24.8,21.2,86,29.85,10.0,Calm,Calm,-,N/A,,Overcast,0,2011-11-30 13:35:00
7:55 AM,26.6,21.2,80,29.85,10.0,Calm,Calm,-,N/A,,Overcast,0,2011-11-30 13:55:00
8:15 AM,26.6,21.2,80,29.85,10.0,Calm,Calm,-,N/A,,Overcast,0,2011-11-30 14:15:00
8:35 AM,26.6,23.0,86,29.87,10.0,Calm,Calm,-,N/A,,Overcast,0,2011-11-30 14:35:00
8:55 AM,26.6,23.0,86,29.87,10.0,Calm,Calm,-,N/A,,Overcast,0,2011-11-30 14:55:00
9:15 AM,26.6,23.0,86,29.87,10.0,Calm,Calm,-,N/A,,Overcast,0,2011-11-30 15:15:00
9:35 AM,28.4,23.0,80,29.88,10.0,Calm,Calm,-,N/A,,Overcast,0,2011-11-30 15:35:00
9:55 AM,28.4,23.0,80,29.89,7.0,Calm,Calm,-,N/A,,Overcast,0,2011-11-30 15:55:00
10:15 AM,28.4,23.0,80,29.89,10.0,NNW,3.5,-,N/A,,Overcast,340,2011-11-30 16:15:00
10:35 AM,28.4,23.0,80,29.89,10.0,Calm,Calm,-,N/A,,Overcast,0,2011-11-30 16:35:00
10:55 AM,30.2,21.2,69,29.89,10.0,NNE,3.5,-,N/A,,Overcast,30,2011-11-30 16:55:00
11:15 AM,30.2,21.2,69,29.89,10.0,Calm,Calm,-,N/A,,Overcast,0,2011-11-30 17:15:00
11:35 AM,30.2,21.2,69,29.89,10.0,Calm,Calm,-,N/A,,Overcast,0,2011-11-30 17:35:00
11:55 AM,32.0,23.0,69,29.89,10.0,NNW,4.6,-,N/A,,Overcast,340,2011-11-30 17:55:00
12:35 PM,32.0,23.0,69,29.89,10.0,Calm,Calm,-,N/A,,Overcast,0,2011-11-30 18:35:00
12:55 PM,32.0,23.0,69,29.89,10.0,North,4.6,-,N/A,,Overcast,350,2011-11-30 18:55:00
1:15 PM,32.0,23.0,69,29.89,7.0,North,4.6,-,N/A,,Overcast,350,2011-11-30 19:15:00
1:35 PM,32.0,23.0,69,29.90,10.0,NNW,4.6,-,N/A,,Overcast,340,2011-11-30 19:35:00
1:55 PM,32.0,23.0,69,29.90,10.0,NNW,4.6,-,N/A,,Overcast,340,2011-11-30 19:55:00
2:15 PM,32.0,23.0,69,29.90,10.0,North,5.8,-,N/A,,Overcast,360,2011-11-30 20:15:00
2:35 PM,32.0,23.0,69,29.90,10.0,North,5.8,-,N/A,,Overcast,360,2011-11-30 20:35:00
2:55 PM,32.0,23.0,69,29.92,10.0,NNW,6.9,-,N/A,,Overcast,340,2011-11-30 20:55:00
3:15 PM,30.2,23.0,75,29.93,10.0,NNW,6.9,-,N/A,,Overcast,340,2011-11-30 21:15:00
3:35 PM,30.2,23.0,75,29.93,10.0,North,8.1,-,N/A,,Overcast,350,2011-11-30 21:35:00
3:55 PM,30.2,23.0,75,29.94,10.0,North,8.1,-,N/A,Snow,Light Snow,360,2011-11-30 21:55:00
4:15 PM,30.2,23.0,75,29.96,7.0,North,5.8,-,N/A,Snow,Light Snow,350,2011-11-30 22:15:00
4:35 PM,30.2,23.0,75,29.97,10.0,North,4.6,-,N/A,,Overcast,360,2011-11-30 22:35:00
4:55 PM,30.2,23.0,75,29.98,10.0,North,9.2,-,N/A,,Overcast,360,2011-11-30 22:55:00
5:15 PM,30.2,23.0,75,29.99,10.0,North,8.1,-,N/A,,Overcast,360,2011-11-30 23:15:00
5:35 PM,30.2,23.0,75,30.00,10.0,North,8.1,16.1,N/A,,Overcast,360,2011-11-30 23:35:00
5:55 PM,28.4,23.0,80,30.01,7.0,North,12.7,-,N/A,Snow,Light Snow,360,2011-11-30 23:55:00
6:15 PM,28.4,23.0,80,30.02,7.0,North,8.1,-,N/A,Snow,Light Snow,10,2011-12-01 00:15:00
6:35 PM,28.4,23.0,80,30.03,10.0,North,9.2,-,N/A,Snow,Light Snow,10,2011-12-01 00:35:00
6:55 PM,28.4,23.0,80,30.05,10.0,North,6.9,-,N/A,,Overcast,10,2011-12-01 00:55:00
7:15 PM,28.4,23.0,80,30.06,10.0,North,6.9,-,N/A,,Overcast,10,2011-12-01 01:15:00
7:35 PM,28.4,23.0,80,30.07,7.0,North,6.9,-,N/A,Snow,Light Snow,360,2011-12-01 01:35:00
8:15 PM,28.4,23.0,80,30.09,10.0,North,8.1,-,N/A,,Overcast,10,2011-12-01 02:15:00
8:35 PM,28.4,23.0,80,30.09,10.0,North,9.2,-,N/A,,Overcast,10,2011-12-01 02:35:00
8:55 PM,28.4,23.0,80,30.10,10.0,North,9.2,-,N/A,,Overcast,360,2011-12-01 02:55:00
9:15 PM,28.4,23.0,80,30.12,10.0,North,10.4,-,N/A,,Overcast,360,2011-12-01 03:15:00
9:35 PM,28.4,21.2,74,30.13,10.0,North,9.2,16.1,N/A,,Overcast,360,2011-12-01 03:35:00
9:55 PM,28.4,23.0,80,30.14,10.0,North,9.2,-,N/A,,Overcast,350,2011-12-01 03:55:00
10:15 PM,28.4,21.2,74,30.15,10.0,North,9.2,-,N/A,,Overcast,10,2011-12-01 04:15:00
10:35 PM,26.6,19.4,74,30.17,10.0,NNE,8.1,-,N/A,,Overcast,20,2011-12-01 04:35:00
10:55 PM,26.6,19.4,74,30.18,10.0,North,9.2,-,N/A,,Overcast,10,2011-12-01 04:55:00
11:15 PM,26.6,19.4,74,30.18,10.0,North,9.2,-,N/A,,Overcast,360,2011-12-01 05:15:00
11:35 PM,26.6,19.4,74,30.19,10.0,North,5.8,-,N/A,,Overcast,360,2011-12-01 05:35:00
11:55 PM,26.6,19.4,74,30.21,10.0,North,12.7,-,N/A,,Overcast,350,2011-12-01 05:55:00